When you browse on this site, cookies collect data to enhance your experience and personalize the content and advertising you see.
Visit our Privacy Policy to learn more. By continuing to use the site, you agree to this use of cookies and data.

Stündliche Wetter Zatyshne

Heute, 15 August, Samstag

Zeit Temperatur Niederschläge Wind Luftdruck Luftfeuchtigkeit
00:00 +13°C° 0 mm 3 m/S 744 mmHg 68%
01:00 +13°C° 0 mm 3 m/S 744 mmHg 72%
02:00 +12°C° 0 mm 3 m/S 744 mmHg 78%
03:00 +12°C° 0 mm 3 m/S 744 mmHg 80%
04:00 +12°C° 0 mm 3 m/S 744 mmHg 82%
05:00 +11°C° 0 mm 3 m/S 745 mmHg 85%
06:00 +14°C° 0 mm 3 m/S 745 mmHg 74%
07:00 +17°C° 0 mm 3 m/S 745 mmHg 64%
08:00 +19°C° 0 mm 4 m/S 745 mmHg 52%
09:00 +20°C° 0 mm 4 m/S 745 mmHg 47%
10:00 +21°C° 0 mm 4 m/S 745 mmHg 42%
11:00 +23°C° 0 mm 4 m/S 746 mmHg 38%
12:00 +23°C° 0 mm 4 m/S 746 mmHg 36%
13:00 +23°C° 0 mm 4 m/S 745 mmHg 34%
14:00 +25°C° 0 mm 4 m/S 745 mmHg 33%
15:00 +25°C° 0 mm 4 m/S 745 mmHg 33%
16:00 +23°C° 0 mm 4 m/S 745 mmHg 33%
17:00 +23°C° 0 mm 4 m/S 745 mmHg 34%
18:00 +21°C° 0 mm 4 m/S 745 mmHg 38%
19:00 +19°C° 0 mm 3 m/S 745 mmHg 42%
20:00 +17°C° 0 mm 3 m/S 745 mmHg 46%
21:00 +16°C° 0 mm 3 m/S 745 mmHg 49%
22:00 +14°C° 0 mm 3 m/S 745 mmHg 51%
23:00 +14°C° 0 mm 3 m/S 745 mmHg 54%

Morgen, 16 August, Sonntag

Zeit Temperatur Niederschläge Wind Luftdruck Luftfeuchtigkeit
00:00 +13°C° 0 mm 3 m/S 745 mmHg 57%
01:00 +13°C° 0 mm 3 m/S 745 mmHg 60%
02:00 +13°C° 0 mm 2 m/S 745 mmHg 63%
03:00 +13°C° 0 mm 2 m/S 745 mmHg 64%
04:00 +13°C° 0 mm 2 m/S 745 mmHg 65%
05:00 +13°C° 0 mm 2 m/S 745 mmHg 65%
06:00 +15°C° 0 mm 2 m/S 745 mmHg 58%
07:00 +17°C° 0 mm 2 m/S 746 mmHg 51%
08:00 +19°C° 0 mm 3 m/S 746 mmHg 44%
09:00 +20°C° 0 mm 2 m/S 746 mmHg 41%
10:00 +21°C° 0 mm 2 m/S 746 mmHg 37%
11:00 +24°C° 0 mm 2 m/S 746 mmHg 33%
12:00 +24°C° 0 mm 2 m/S 746 mmHg 32%
13:00 +25°C° 0 mm 2 m/S 745 mmHg 30%
14:00 +26°C° 0 mm 2 m/S 745 mmHg 29%
15:00 +25°C° 0 mm 2 m/S 745 mmHg 29%
16:00 +25°C° 0 mm 2 m/S 745 mmHg 30%
17:00 +25°C° 0 mm 3 m/S 745 mmHg 31%
18:00 +23°C° 0 mm 2 m/S 745 mmHg 34%
19:00 +20°C° 0 mm 2 m/S 745 mmHg 38%
20:00 +19°C° 0 mm 1 m/S 745 mmHg 42%
21:00 +19°C° 0 mm 1 m/S 745 mmHg 44%
22:00 +18°C° 0 mm 1 m/S 745 mmHg 46%
23:00 +18°C° 0 mm 1 m/S 745 mmHg 48%

übermorgen, 17 August, Montag

Zeit Temperatur Niederschläge Wind Luftdruck Luftfeuchtigkeit
00:00 +16°C° 0 mm 2 m/S 745 mmHg 50%
01:00 +16°C° 0 mm 2 m/S 745 mmHg 51%
02:00 +16°C° 0 mm 2 m/S 745 mmHg 53%
03:00 +16°C° 0 mm 2 m/S 745 mmHg 54%
04:00 +16°C° 0 mm 2 m/S 745 mmHg 55%
05:00 +16°C° 0 mm 2 m/S 745 mmHg 55%
06:00 +18°C° 0 mm 2 m/S 745 mmHg 51%
07:00 +20°C° 0 mm 2 m/S 745 mmHg 46%
08:00 +24°C° 0 mm 3 m/S 745 mmHg 41%
09:00 +25°C° 0 mm 3 m/S 745 mmHg 41%
10:00 +26°C° 0 mm 3 m/S 745 mmHg 40%
11:00 +28°C° 0 mm 4 m/S 745 mmHg 39%
12:00 +28°C° 0 mm 4 m/S 745 mmHg 37%
13:00 +29°C° 0 mm 4 m/S 744 mmHg 36%
14:00 +30°C° 0 mm 3 m/S 744 mmHg 34%
15:00 +29°C° 0 mm 3 m/S 744 mmHg 37%
16:00 +28°C° 0 mm 3 m/S 744 mmHg 40%
17:00 +28°C° 0 mm 3 m/S 743 mmHg 43%
18:00 +26°C° 0 mm 3 m/S 743 mmHg 48%
19:00 +24°C° 0 mm 2 m/S 743 mmHg 53%
20:00 +23°C° 0 mm 1 m/S 743 mmHg 57%
21:00 +22°C° 0 mm 1 m/S 744 mmHg 58%
22:00 +21°C° 0 mm 2 m/S 744 mmHg 59%
23:00 +20°C° 0 mm 2 m/S 744 mmHg 59%

18 August, Dienstag

Zeit Temperatur Niederschläge Wind Luftdruck Luftfeuchtigkeit
00:00 +20°C° 0 mm 2 m/S 744 mmHg 61%
01:00 +20°C° 0 mm 2 m/S 744 mmHg 62%
02:00 +19°C° 0 mm 2 m/S 743 mmHg 64%
03:00 +19°C° 0 mm 2 m/S 743 mmHg 66%
04:00 +19°C° 0 mm 2 m/S 743 mmHg 67%
05:00 +18°C° 0 mm 2 m/S 743 mmHg 69%
06:00 +21°C° 0 mm 2 m/S 743 mmHg 63%
07:00 +24°C° 0 mm 2 m/S 743 mmHg 56%
08:00 +26°C° 0 mm 2 m/S 743 mmHg 49%
09:00 +27°C° 0 mm 2 m/S 743 mmHg 45%
10:00 +28°C° 0 mm 2 m/S 743 mmHg 41%
11:00 +30°C° 0 mm 2 m/S 743 mmHg 36%
12:00 +30°C° 0 mm 2 m/S 743 mmHg 35%
13:00 +31°C° 0 mm 2 m/S 742 mmHg 33%
14:00 +31°C° 0 mm 2 m/S 742 mmHg 31%
15:00 +31°C° 0 mm 2 m/S 742 mmHg 33%
16:00 +30°C° 0 mm 2 m/S 742 mmHg 34%
17:00 +30°C° 0 mm 2 m/S 742 mmHg 36%
18:00 +28°C° 0 mm 2 m/S 742 mmHg 40%
19:00 +27°C° 0 mm 2 m/S 742 mmHg 45%
20:00 +25°C° 0 mm 2 m/S 742 mmHg 49%
21:00 +24°C° 0 mm 2 m/S 742 mmHg 49%
22:00 +24°C° 0 mm 2 m/S 742 mmHg 50%
23:00 +24°C° 0 mm 2 m/S 742 mmHg 51%

19 August, Mittwoch

Zeit Temperatur Niederschläge Wind Luftdruck Luftfeuchtigkeit
00:00 +22°C° 0 mm 3 m/S 742 mmHg 52%
01:00 +22°C° 0 mm 3 m/S 742 mmHg 54%
02:00 +22°C° 0 mm 3 m/S 742 mmHg 55%
03:00 +21°C° 0 mm 3 m/S 741 mmHg 56%
04:00 +21°C° 0 mm 3 m/S 741 mmHg 57%
05:00 +21°C° 0 mm 3 m/S 741 mmHg 59%
06:00 +24°C° 0 mm 3 m/S 741 mmHg 55%
07:00 +25°C° 0 mm 3 m/S 742 mmHg 51%
08:00 +27°C° 0 mm 2 m/S 742 mmHg 47%
09:00 +28°C° 0 mm 3 m/S 742 mmHg 44%
10:00 +29°C° 0 mm 3 m/S 742 mmHg 40%
11:00 +30°C° 0 mm 3 m/S 742 mmHg 37%
12:00 +31°C° 0 mm 2 m/S 742 mmHg 34%
13:00 +31°C° 0 mm 2 m/S 742 mmHg 31%
14:00 +32°C° 0 mm 2 m/S 741 mmHg 28%
15:00 +32°C° 0 mm 2 m/S 741 mmHg 29%
16:00 +32°C° 0 mm 2 m/S 741 mmHg 30%
17:00 +31°C° 0 mm 2 m/S 741 mmHg 31%
18:00 +29°C° 0 mm 2 m/S 741 mmHg 35%
19:00 +27°C° 0 mm 2 m/S 741 mmHg 38%
20:00 +26°C° 0 mm 3 m/S 741 mmHg 42%
21:00 +25°C° 0 mm 3 m/S 741 mmHg 44%
22:00 +25°C° 0 mm 3 m/S 741 mmHg 45%
23:00 +24°C° 0 mm 3 m/S 741 mmHg 47%

20 August, Donnerstag

Zeit Temperatur Niederschläge Wind Luftdruck Luftfeuchtigkeit
00:00 +24°C° 0 mm 3 m/S 741 mmHg 49%
01:00 +22°C° 0 mm 3 m/S 741 mmHg 50%
02:00 +22°C° 0 mm 3 m/S 741 mmHg 52%
03:00 +21°C° 0 mm 3 m/S 740 mmHg 53%
04:00 +21°C° 0 mm 3 m/S 740 mmHg 54%
05:00 +20°C° 0 mm 3 m/S 740 mmHg 55%
06:00 +22°C° 0 mm 3 m/S 740 mmHg 51%
07:00 +25°C° 0 mm 3 m/S 740 mmHg 47%
08:00 +27°C° 0 mm 3 m/S 741 mmHg 43%
09:00 +29°C° 0 mm 3 m/S 741 mmHg 38%
10:00 +30°C° 0 mm 4 m/S 741 mmHg 33%
11:00 +33°C° 0 mm 4 m/S 741 mmHg 28%
12:00 +34°C° 0 mm 4 m/S 741 mmHg 26%
13:00 +34°C° 0 mm 4 m/S 740 mmHg 25%
14:00 +35°C° 0 mm 4 m/S 740 mmHg 24%
15:00 +34°C° 0 mm 3 m/S 740 mmHg 25%
16:00 +34°C° 0 mm 3 m/S 740 mmHg 26%
17:00 +33°C° 0 mm 3 m/S 740 mmHg 28%
18:00 +31°C° 0 mm 3 m/S 740 mmHg 29%
19:00 +29°C° 0 mm 3 m/S 740 mmHg 31%
20:00 +27°C° 0 mm 3 m/S 740 mmHg 33%
21:00 +26°C° 0 mm 3 m/S 740 mmHg 35%
22:00 +26°C° 0 mm 4 m/S 740 mmHg 37%
23:00 +25°C° 0 mm 4 m/S 740 mmHg 39%
Mehr zeigen